Flag for U.S.A. Weather past 2 weeks in Sidney, Montana, U.S.A.

Now
54 °F

Sunny.


Feels Like: 52 °F
Forecast: 39 / 65 °F
Wind: 6 mph from Northeast

Location: Sidney-Richland

Current Time: May 29, 2015 at 9:08:19 PM

Latest Report: May 29, 2015 at 8:35 PM


Visibility: 10 mi

Pressure: 30.28 "Hg

Humidity: 41%

Dew point: 30 °F

Location of SidneyLocation

Historic Weather in Sidney — Graph

°F

Sidney temperature yesterday

Maximum temperature yesterday: 75 °F (at 3:55 PM)
Minimum temperature yesterday: 48 °F (at 3:55 AM)
Average temperature yesterday: 61 °F

Past Weeks' High & Low Weather Summary

 TemperatureHumidityPressure
High79 °F (May 26, 2:35 PM)94% (May 16, 10:55 AM)30.47 "Hg (May 16, 10:55 AM)
Low27 °F (May 19, 5:35 AM)19% (May 22, 2:55 PM)29.61 "Hg (May 16, 1:35 PM)
Average54 °F61%30.06 "Hg
* Reported May 14 7:15 PM — May 29 7:55 PM, Sidney, Weather by CustomWeather, © 2015

Note: Actual official high and low records may vary slightly from our data, if they occured in-between our weather recording intervals... More about our weather records

Advertising

Sidney weather history for previous 24 hours

 ConditionsComfort  
Time TempWeatherWind HumidityBarometerVisibility
7:55 PM
Fri, May 29
57 °FSunny.7 mph36%30.28 "Hg10 mi
7:35 PM59 °FSunny.5 mph34%30.28 "Hg10 mi
7:15 PM59 °FSunny.5 mph34%30.27 "Hg10 mi
6:55 PM61 °FSunny.6 mph31%30.28 "Hg10 mi
6:35 PM61 °FSunny.5 mph31%30.28 "Hg10 mi
6:15 PM61 °FSunny.5 mph31%30.28 "Hg10 mi
5:55 PM61 °FSunny.No wind31%30.27 "Hg10 mi
5:35 PM63 °FSunny.6 mph30%30.28 "Hg10 mi
5:15 PM61 °FSunny.9 mph31%30.28 "Hg10 mi
4:55 PM61 °FSunny.7 mph31%30.28 "Hg10 mi
4:35 PM61 °FSunny.3 mph31%30.28 "Hg10 mi
4:15 PM61 °FSunny.7 mph31%30.28 "Hg10 mi
3:55 PM61 °FSunny.7 mph31%30.28 "Hg10 mi
3:35 PM61 °FSunny.No wind31%30.29 "Hg10 mi
3:15 PM61 °FSunny.10 mph31%30.28 "Hg10 mi
2:35 PM57 °FSunny.3 mph33%30.29 "Hg10 mi
2:15 PM57 °FSunny.8 mph36%30.30 "Hg10 mi
1:55 PM57 °FSunny.8 mph36%30.30 "Hg10 mi
1:35 PM57 °FSunny.6 mph36%30.31 "Hg10 mi
1:15 PM57 °FSunny.10 mph36%30.32 "Hg10 mi
12:55 PM57 °FSunny.14 mph39%30.32 "Hg10 mi
12:35 PM55 °FSunny.10 mph38%30.32 "Hg10 mi
12:15 PM54 °FSunny.10 mph41%30.32 "Hg10 mi
11:55 AM54 °FSunny.10 mph41%30.32 "Hg10 mi
11:35 AM54 °FSunny.9 mph44%30.33 "Hg10 mi
11:15 AM52 °FScattered clouds.9 mph44%30.32 "Hg10 mi
10:55 AM52 °FScattered clouds.5 mph44%30.33 "Hg10 mi
10:35 AM52 °FPartly sunny.8 mph44%30.33 "Hg10 mi
10:15 AM52 °FPartly sunny.8 mph44%30.33 "Hg10 mi
9:55 AM48 °FPartly sunny.8 mph50%30.33 "Hg10 mi
9:35 AM48 °FMostly cloudy.9 mph50%30.33 "Hg10 mi
9:15 AM46 °FMostly cloudy.13 mph53%30.33 "Hg10 mi
8:55 AM46 °FOvercast.7 mph53%30.32 "Hg10 mi
8:35 AM46 °FOvercast.12 mph53%30.32 "Hg10 mi
8:15 AM46 °FOvercast.7 mph53%30.32 "Hg10 mi
7:55 AM45 °FOvercast.9 mph57%30.32 "Hg10 mi
7:35 AM45 °FOvercast.14 mph61%30.31 "Hg10 mi
7:15 AM45 °FOvercast.12 mph66%30.30 "Hg10 mi
6:55 AM45 °FOvercast.10 mph57%30.30 "Hg10 mi
6:35 AM45 °FOvercast.9 mph61%30.29 "Hg10 mi
6:15 AM43 °FOvercast.9 mph66%30.29 "Hg10 mi
5:55 AM43 °FOvercast.10 mph66%30.28 "Hg10 mi
5:35 AM45 °FOvercast.8 mph57%30.27 "Hg10 mi
5:15 AM45 °FOvercast.12 mph57%30.26 "Hg10 mi
4:55 AM43 °FOvercast.12 mph61%30.25 "Hg10 mi
4:35 AM45 °FOvercast.13 mph57%30.25 "Hg10 mi
4:15 AM45 °FOvercast.13 mph61%30.24 "Hg10 mi
3:55 AM45 °FOvercast.13 mph61%30.24 "Hg10 mi
3:35 AM45 °FOvercast.14 mph66%30.23 "Hg10 mi
3:15 AM46 °FOvercast.14 mph62%30.23 "Hg10 mi
2:55 AM46 °FOvercast.16 mph57%30.22 "Hg10 mi
2:35 AM46 °FOvercast.13 mph62%30.22 "Hg10 mi
2:15 AM46 °FOvercast.15 mph62%30.22 "Hg10 mi
1:55 AM48 °FOvercast.14 mph62%30.21 "Hg10 mi
1:35 AM48 °FOvercast.15 mph62%30.20 "Hg10 mi
1:15 AM48 °FOvercast.15 mph62%30.20 "Hg10 mi
12:55 AM48 °FOvercast.17 mph62%30.19 "Hg10 mi
12:35 AM50 °FOvercast.15 mph62%30.19 "Hg10 mi
12:15 AM50 °FOvercast.16 mph62%30.18 "Hg10 mi
11:55 PM
Thu, May 28
50 °FOvercast.18 mph62%30.17 "Hg10 mi
11:35 PM50 °FOvercast.20 mph67%30.16 "Hg10 mi
11:15 PM52 °FOvercast.18 mph62%30.14 "Hg10 mi
10:55 PM52 °FOvercast.21 mph62%30.13 "Hg10 mi
10:35 PM54 °FOvercast.22 mph63%30.13 "Hg10 mi
10:15 PM54 °FPassing clouds.22 mph67%30.12 "Hg10 mi
9:35 PM57 °FPartly sunny.20 mph63%30.10 "Hg10 mi
9:15 PM57 °FBroken clouds.18 mph63%30.07 "Hg10 mi
Weather by CustomWeather, © 2015

See weather overviewHow to use our weather pages